Location: Allen Fire Department Station 4
(33.1073°N, 96.6988°W)
Time: 11:27:20
(UTC+00:00)

YAOGAN 6 - Pass Details

Date: 03 December 2021
Orbit: 461 x 501 km, 97.1° (Epoch: 24 January)

Event Time Altitude Azimuth Distance (km) Brightness Sun altitude
Exits shadow 12:06:14 15° 244° (WSW) 1,379 4.4 -14.0°
Drops below altitude 10° 12:07:11 10° 233° (SW) 1,680 5.0 -13.8°
Sets 12:09:30 0° 219° (SW) 2,549 6.0 -13.3°
